Location: �breuil
(46.1163°N, 3.0877°E)
Time: 04:57:19
(UTC+00:00)

Daily predictions for brighter satellites

Satellite Brightness Start Highest point End
(mag) Time Altitude Azimuth Time Altitude Azimuth Time Altitude Azimuth
Cosmos 2333 Rocket 4.1 02:21:07 26° NE 02:21:07 26° NE 02:23:47 10° NE
Cosmos 2219 Rocket 3.8 02:37:20 31° NE 02:37:20 31° NE 02:40:19 10° NE
USA 234 3.8 02:34:43 10° E 02:40:51 53° NNE 02:40:51 53° NNE
COSMOS 2455 4.1 02:49:04 35° NNE 02:49:04 35° NNE 02:52:31 10° NNE
Cosmos 2237 Rocket 3.8 02:47:34 28° ESE 02:48:09 28° ESE 02:52:57 10° NE
ATLAS 3B R/B 3.4 02:47:49 43° N 02:49:08 48° NE 02:55:42 10° ESE
CENTAUR R/B 3.4 02:54:44 34° NNW 02:58:33 64° NE 03:07:09 10° SE
Cosmos 2322 Rocket 4.4 03:03:58 15° N 03:03:58 15° N 03:05:20 10° N
Cosmos 2360 Rocket 3.9 03:11:46 22° N 03:11:46 22° N 03:14:07 10° NNE
COSMOS 2428 3.4 03:11:04 47° NNE 03:11:04 47° NNE 03:15:03 10° NNE
ADEOS II 4.1 03:07:32 10° N 03:09:02 19° N 03:09:02 19° N
ATLAS 2AS CENTAUR R/B 3.0 03:16:30 61° SSW 03:18:08 79° SE 03:26:12 10° NE
Cosmos 1709 Rocket 4.3 03:34:58 50° NW 03:34:58 50° NW 03:40:05 10° N
CZ-2C R/B 4.3 03:29:20 10° NNE 03:33:55 31° E 03:38:26 10° SSE
NOSS 0 Rocket 3.9 03:33:20 62° S 03:34:25 80° ESE 03:40:37 10° NNE
IDEFIX/ARIANE 42P 2.6 03:35:05 10° NNE 03:40:22 79° ESE 03:41:20 59° S
Cosmos 2184 Rocket 4.2 03:36:10 10° S 03:42:20 68° E 03:48:35 10° NNE
PSLV R/B 4.2 03:38:33 10° NNE 03:41:40 47° NNE 03:41:40 47° NNE
SL-16 R/B 4.0 03:38:01 10° SSE 03:42:49 30° ESE 03:47:40 10° NE
NOSS 3-2 (A) 4.2 03:45:56 48° WSW 03:45:56 48° WSW 03:53:44 10° S
RESURS DK-1 4.3 03:44:37 17° SSE 03:46:56 27° ESE 03:50:28 10° NE
USA 267 3.2 03:43:04 10° NE 03:49:35 74° NNW 03:51:17 52° W
Cosmos 2278 Rocket 2.2 03:52:09 57° SW 03:52:09 57° SW 03:57:02 10° S
Cosmos 407 Rocket 3.3 03:59:53 55° SW 04:01:01 82° WNW 04:06:11 10° NNE
Cosmos 1190 Rocket 3.9 04:00:14 40° SSW 04:02:11 89° WNW 04:07:30 10° NNE
Cosmos 2333 Rocket 2.9 04:03:09 35° NW 04:03:09 35° NW 04:08:03 10° NNE
NOSS 3-2 (C) 4.2 04:07:39 31° WNW 04:11:09 49° WSW 04:19:08 10° S
Cosmos 2074 Rocket 3.9 04:05:54 10° SSW 04:12:07 72° W 04:18:20 10° N
Cosmos 2219 Rocket 3.1 04:19:05 28° NW 04:19:08 28° NW 04:23:55 10° N
USA 234 3.2 04:17:29 10° SE 04:23:58 64° SW 04:28:13 23° WNW
Cosmos 1437 Rocket 3.9 04:23:57 10° SSE 04:27:33 43° E 04:31:10 10° NNE
NOSS 3-4 (A) 3.5 04:25:47 31° WSW 04:28:42 61° NW 04:35:06 10° NE
NOSS 3-4 (C) 3.5 04:25:49 31° WSW 04:28:47 61° NW 04:35:12 10° NE
Cosmos 1892 Rocket 3.8 04:25:10 10° S 04:29:34 70° E 04:33:57 10° NNE
In-Cosmos 22 4.4 04:25:18 10° S 04:30:37 71° E 04:36:06 10° NNE
USA 32 4.4 04:29:17 28° SW 04:31:23 41° WNW 04:36:21 10° N
SJ-6F 4.3 04:27:38 10° N 04:31:48 73° WNW 04:35:53 10° SSW
Cosmos 2237 Rocket 2.4 04:29:27 30° WSW 04:31:56 49° WNW 04:37:30 10° NNE
ADEOS 4.0 04:28:03 10° N 04:32:55 40° WNW 04:34:54 28° WSW
COSMOS 2455 4.3 04:32:13 18° NW 04:33:33 19° NNW 04:37:47 10° NNE
H-2A R/B 2.7 04:32:39 10° N 04:36:40 46° WNW 04:38:53 24° SW
BREEZE-M DEB (TANK) 2.5 04:35:29 33° WNW 04:36:50 50° NNW 04:39:14 10° ENE
Cosmos 614 Rocket 4.4 04:34:48 29° WSW 04:36:50 42° WNW 04:41:47 10° N
Cosmos 1140 Rocket 3.5 04:35:02 18° SW 04:38:47 58° WNW 04:43:53 10° NNE
Cosmos 1954 Rocket 3.9 04:33:48 10° SSW 04:39:02 77° WNW 04:44:16 10° NNE
ATLAS 3B R/B 3.0 04:35:09 18° NW 04:39:48 44° WSW 04:46:14 10° S
Cosmos 1606 Rocket 3.5 04:35:50 10° NNW 04:40:04 53° W 04:44:16 10° S
Meteor 1-4 Rocket 2.7 04:41:56 34° WSW 04:42:57 45° WNW 04:46:19 10° N
Cosmos 1908 4.0 04:39:39 10° N 04:43:26 53° ENE 04:47:10 10° SSE
Cosmos 2369 Rocket 3.6 04:40:20 10° NNW 04:45:34 38° NE 04:50:45 10° ESE
PAYLOAD A 4.1 04:41:58 10° N 04:46:40 51° WNW 04:51:31 10° SW
GP-B 3.1 04:42:32 10° S 04:46:58 89° E 04:51:27 10° N
Cosmos 1726 2.0 04:44:02 10° N 04:47:43 86° W 04:51:23 10° S
Cosmos 1953 2.9 04:44:36 10° NNW 04:48:16 33° W 04:51:51 10° SSW
CENTAUR R/B 3.6 04:42:00 11° NW 04:49:13 41° WSW 04:57:08 10° S
Cosmos 468 Rocket 4.4 04:44:12 10° NNW 04:49:20 63° ENE 04:54:25 10° SSE
Cosmos 1980 4.3 04:47:10 23° W 04:49:53 35° NW 04:55:04 10° NNE
Gblst 52 Del rocket 4.1 04:46:13 21° WNW 04:50:05 87° SSW 04:56:03 10° ESE
Cosmos 389 Rocket 3.6 04:50:46 24° NW 04:50:46 24° NW 04:53:04 10° NNW
COSMOS 2428 4.2 04:53:06 17° WNW 04:54:30 18° NW 04:58:18 10° N
CZ-4B R/B 2.8 04:51:01 10° N 04:54:56 56° WNW 04:58:40 10° SSW
Cosmos 1707 3.8 04:56:42 23° W 04:57:34 25° WNW 05:00:54 10° NNW
Meteor 1-31 Rocket 2.9 04:54:32 10° N 04:58:13 47° WNW 05:01:52 10° SSW
Cosmos 44 Rocket 3.2 04:57:38 10° NW 05:02:17 58° WSW 05:06:53 10° SSE
Cosmos 1356 4.0 04:59:54 10° NNW 05:03:05 35° W 05:06:15 10° SSW
Cosmos 1626 Rocket 4.3 05:00:14 10° S 05:04:26 56° E 05:08:42 10° NNE
ERBS 4.2 05:04:03 15° NW 05:05:23 18° NNW 05:07:49 10° NNE
Cosmos 962 Rocket 4.5 05:02:51 10° SSW 05:09:06 68° W 05:15:29 10° N
Okean 1-7 Rocket 3.9 05:05:04 10° SSW 05:09:21 45° WNW 05:13:42 10° N
ATLAS 2AS CENTAUR R/B 3.7 05:03:59 16° W 05:09:56 38° NNW 05:17:15 10° NNE
Cosmos 1674 2.5 05:07:14 10° SSW 05:10:56 73° W 05:14:40 10° N
BREEZE-M DEB (TANK) 3.5 05:06:15 10° WSW 05:11:38 50° SSE 05:14:23 10° E
Cosmos 1943 Rocket 2.6 05:06:00 10° NNW 05:11:41 66° ENE 05:17:18 10° SE
COSMO-SKYMED 1 2.5 05:07:28 10° S 05:11:47 69° WSW 05:16:08 10° NNW
CZ-2C R/B 3.0 05:07:24 10° N 05:12:11 38° WNW 05:16:55 10° SW
Cosmos 2228 3.8 05:08:34 10° NNW 05:12:13 28° W 05:15:51 10° SSW
Meteor 2-17 Rocket 4.4 05:06:19 10° SSW 05:12:23 79° W 05:18:29 10° N
Cosmos 1484 Rocket 2.6 05:10:19 10° N 05:14:06 71° WNW 05:17:56 10° SSW
Cosmos 2218 Rocket 4.3 05:08:53 10° S 05:15:15 78° E 05:21:35 10° N
FENGYUN 3A 4.2 05:11:36 10° NNE 05:17:01 64° ESE 05:22:24 10° S
Cosmos 2154 Rocket 4.4 05:13:04 10° SW 05:18:47 38° WNW 05:24:33 10° N
IDEFIX/ARIANE 42P 4.0 05:16:02 10° NNW 05:19:18 17° WNW 05:22:08 11° W
COBE Rocket 4.1 05:14:21 10° S 05:19:19 57° W 05:24:25 10° NNW
Cosmos 1726 Rocket 4.5 05:16:23 10° NNW 05:19:57 26° W 05:23:30 10° SW
Cosmos 1741 Rocket 4.0 05:15:40 10° SSW 05:21:00 82° WNW 05:26:23 10° NNE
Helios 1A Rocket 3.0 05:20:23 10° NNE 05:24:34 88° ESE 05:28:44 10° SSW
RESURS DK-1 3.1 05:21:09 10° WSW 05:24:53 32° NW 05:28:38 10° N
Cosmos 1603 4.5 05:20:55 10° S 05:26:25 58° ESE 05:31:58 10° NNE
SL-16 R/B 2.5 05:21:15 10° SW 05:26:43 47° WNW 05:32:12 10° NNE
Meteor 1-24 Rocket 3.8 05:21:58 10° S 05:27:46 86° W 05:33:46 10° N
Cosmos 1763 Rocket 3.4 05:23:16 10° NNW 05:28:28 79° WSW 05:33:33 10° SSE
Cosmos 540 Rocket 4.4 05:25:12 10° NNW 05:30:16 53° ENE 05:35:17 10° SE
USA 267 4.0 05:26:08 10° NE 05:32:05 39° NNW 05:38:02 10° WNW
Cosmos 1626 3.0 05:29:31 10° S 05:33:08 54° E 05:36:47 10° NNE
Cosmos 1727 Rocket 4.2 05:28:47 10° N 05:35:03 83° E 05:41:20 10° S
Cosmos 1300 3.0 05:32:26 10° N 05:36:17 72° E 05:40:03 10° SSE
NOAA 6 4.1 05:33:20 10° NNE 05:38:33 89° ESE 05:43:42 10° SSW
Cosmos 1602 Rocket 3.5 05:34:40 10° SSW 05:38:59 78° W 05:43:20 10° N
PSLV R/B 4.4 05:40:02 10° WSW 05:42:19 26° S 05:44:35 10° ESE
Okean O Rocket 1.6 05:38:53 10° N 05:43:18 69° WNW 05:47:37 10° SSW
Cosmos 2058 Rocket 4.2 05:41:05 10° NW 05:44:32 23° W 05:47:59 10° SW
Cosmos 2341 Rocket 4.4 05:41:33 10° SW 05:47:20 39° WNW 05:53:07 10° N
